Theta_e
311 310 310 310 310 310 311 311 311 313 312 314 315 313 312 316 317 317 318 316 317 317 315 317 316 316 313 314 314 315 318 318 317 317 317 315 317 315 320 323 323 324 326 329 333
311 311 310 310 310 311 311 311 312 312 313 315 315 313 316 317 318 318 317 316 318 317 317 316 315 314 316 316 316 318 318 317 316 317 317 316 316 317 319 319 321 324 326 330 335
312 311 311 310 311 311 311 311 313 311 314 315 316 314 316 317 318 318 317 317 318 317 316 316 316 317 318 318 318 318 318 317 316 316 317 317 316 316 317 318 318 318 324 331 334
312 312 311 311 311 311 311 313 312 313 314 316 317 315 316 315 319 318 317 317 318 318 317 317 318 318 319 318 317 317 317 316 316 316 316 317 317 317 318 317 317 320 323 328 331
312 312 312 311 311 311 312 313 312 314 315 318 316 315 318 319 318 318 317 318 318 318 318 319 318 319 319 318 319 320 319 319 317 316 318 317 318 318 318 317 317 320 325 327 328
312 312 312 312 311 312 313 312 313 315 318 317 317 317 318 318 316 316 318 317 318 319 318 319 319 319 319 320 321 319 319 319 318 318 317 319 319 318 317 317 317 321 324 326 327
312 312 312 311 312 313 312 313 315 318 318 317 317 317 318 317 316 315 317 317 318 318 319 319 319 320 321 322 319 319 320 321 319 319 320 318 319 319 317 316 317 320 323 325 327
311 311 311 312 313 312 313 314 317 318 318 317 317 317 318 316 316 314 315 318 319 319 319 317 318 318 321 317 318 320 320 320 320 320 319 321 321 320 319 317 319 318 318 324 326
313 313 314 314 313 313 314 316 317 318 318 317 317 318 317 316 316 314 316 318 319 319 319 317 317 318 317 320 320 319 317 318 319 318 320 320 320 320 316 316 319 319 319 319 323
314 314 314 314 313 314 316 316 318 318 317 317 316 317 316 316 315 315 318 318 319 318 319 319 319 321 320 319 317 318 318 319 318 319 319 321 321 318 316 317 317 317 317 317 319
315 315 315 315 315 315 316 316 317 317 316 316 316 316 316 316 316 316 316 316 317 319 321 318 321 321 319 319 318 318 318 319 318 318 320 321 319 318 317 318 318 318 318 317 318
316 318 319 315 315 316 318 319 316 316 316 315 315 316 317 317 317 317 317 318 319 320 319 320 320 318 317 317 318 319 319 319 319 318 320 321 319 318 317 317 317 318 318 318 317
317 317 319 319 318 318 317 317 315 315 317 317 316 316 316 317 317 317 317 317 318 319 319 319 317 316 317 320 320 320 320 320 320 320 320 321 320 319 317 316 316 317 317 316 316
317 318 317 317 318 317 317 317 316 317 319 317 317 317 316 316 318 316 315 316 317 318 318 318 316 318 319 319 320 320 318 320 320 322 322 321 323 319 318 318 318 318 318 318 316
315 316 316 317 318 318 316 317 318 323 321 318 318 316 317 317 316 318 316 318 318 318 319 316 318 319 320 319 319 321 319 320 321 322 322 322 322 321 318 319 319 318 317 316 315
315 315 315 316 316 317 316 315 321 324 320 319 318 318 319 319 318 318 318 317 317 320 319 318 316 319 320 318 318 319 320 320 321 323 325 323 323 323 320 319 319 317 316 316 315
315 315 315 315 316 315 314 319 322 321 319 318 319 319 319 319 319 319 320 320 320 321 321 319 319 319 319 320 320 321 322 323 326 326 325 321 322 323 318 318 317 317 316 315 315
314 315 315 316 315 314 314 324 320 320 320 317 318 319 319 319 319 319 320 320 320 319 320 321 322 320 319 319 321 321 322 325 323 322 323 320 322 322 317 316 315 315 315 315 315
314 314 315 316 316 315 321 326 323 320 319 319 319 320 320 320 320 320 320 320 319 319 321 321 320 319 318 318 319 322 323 320 322 320 324 321 320 319 317 316 316 316 315 315 315
315 315 315 314 315 316 325 319 319 317 318 319 320 320 321 321 321 320 320 318 319 317 318 320 322 319 317 318 319 320 319 324 322 330 321 318 320 320 319 318 316 316 315 315 314
315 318 318 316 317 322 325 320 318 317 318 320 321 321 321 321 321 321 320 318 318 318 317 317 319 319 317 319 320 321 321 320 321 322 324 322 318 320 319 318 316 315 315 315 314
317 322 319 322 322 318 321 318 317 319 319 320 320 321 322 321 322 322 321 320 316 318 318 318 319 317 315 316 317 318 318 318 321 320 320 320 317 316 317 316 315 315 315 315 314
323 323 323 321 327 323 319 319 318 319 319 320 321 320 320 321 322 321 320 317 317 318 319 318 318 315 316 318 318 319 318 317 316 317 318 321 318 315 315 315 315 315 314 313 312
321 329 321 319 317 321 321 320 320 318 318 319 319 319 320 321 320 321 321 318 317 317 314 316 318 315 314 314 314 314 314 315 317 320 317 318 317 316 316 315 315 315 313 313 312
318 322 320 326 321 320 320 320 321 320 319 319 320 320 321 322 320 321 320 319 317 315 317 318 317 317 316 316 315 316 316 315 316 317 318 317 316 316 315 315 314 314 313 312 312
321 322 317 318 318 320 318 321 320 319 319 320 320 319 318 319 317 319 318 318 317 317 318 317 319 316 317 315 315 315 315 315 316 316 316 316 317 315 313 313 314 313 312 312 311
317 318 321 313 318 322 321 320 319 319 318 318 319 320 320 318 317 318 317 317 317 317 318 318 319 317 321 313 314 318 315 314 315 315 315 316 315 313 313 313 313 312 312 311 310
Wind_Speed
14 13 13 13 12 12 11 10 10 11 11 11 7 6 8 11 10 10 6 7 7 2 2 1 5 9 8 5 6 4 6 10 9 9 9 9 7 4 2 7 3 3 4 8 18
12 12 12 13 13 12 11 11 13 13 13 10 6 8 14 11 11 9 10 10 6 3 6 8 13 9 6 4 3 0 7 7 4 6 10 8 3 6 5 6 5 6 5 12 18
10 11 12 13 13 12 12 13 15 15 13 8 7 10 10 7 4 8 10 11 7 10 12 13 13 9 9 6 3 3 8 9 7 8 7 8 7 4 5 6 6 7 9 16 17
9 11 11 12 12 12 14 17 17 16 11 8 7 9 7 1 3 5 9 10 8 11 12 7 6 7 6 8 8 12 11 9 8 6 5 6 4 5 6 8 4 4 8 16 17
9 9 10 11 13 15 18 19 18 14 9 8 10 12 9 7 6 4 5 6 8 9 8 8 9 8 7 13 13 14 10 7 6 6 3 2 3 1 4 3 2 6 10 14 13
7 8 10 13 16 20 20 20 17 12 9 9 10 11 6 8 6 6 1 3 6 6 6 4 3 11 11 8 4 6 8 5 4 6 4 4 3 4 5 4 2 6 10 13 13
7 10 13 17 21 22 22 20 16 12 10 11 12 13 7 5 6 4 1 4 5 7 7 9 10 1 8 10 7 9 9 7 6 5 4 3 8 5 4 4 4 4 9 13 13
13 16 19 22 22 23 22 19 16 13 11 12 14 8 6 5 2 2 7 7 6 8 10 12 11 9 4 9 5 7 5 4 7 1 1 7 8 6 8 9 9 7 7 12 16
17 19 20 22 22 22 21 18 15 11 9 10 10 5 6 2 2 3 9 7 7 9 9 10 8 6 5 8 7 3 3 2 6 4 5 4 4 10 12 7 7 9 10 11 13
16 18 19 20 21 21 19 16 12 9 10 10 6 8 3 5 5 6 9 9 6 8 5 2 3 5 4 4 2 3 3 2 2 5 7 3 4 8 11 7 6 3 1 2 7
19 18 18 18 19 18 18 16 10 7 8 5 7 9 4 3 11 5 8 8 5 4 3 4 2 5 7 7 4 2 1 2 1 3 8 2 4 9 11 13 15 15 14 12 10
17 16 16 17 17 16 13 5 8 12 11 11 10 10 13 8 7 11 5 2 2 5 3 4 7 6 5 3 0 1 2 1 1 1 5 1 7 9 12 14 14 16 17 18 17
16 17 15 15 14 12 10 10 16 10 7 7 7 5 3 10 9 11 7 5 7 5 3 2 6 3 1 3 3 0 1 3 5 4 3 5 7 6 7 12 13 14 14 14 14
14 12 11 13 11 13 11 12 10 5 3 3 2 4 3 2 5 10 6 2 3 8 7 7 3 3 3 4 6 2 2 8 7 6 3 3 4 5 6 9 12 12 14 13 11
13 12 9 6 11 9 11 8 7 2 3 1 4 4 7 4 1 11 8 6 5 5 4 4 3 2 3 3 4 4 7 5 3 6 4 7 6 7 7 7 8 12 15 15 12
13 12 9 8 8 11 9 6 4 3 3 4 1 4 7 11 6 5 7 9 4 6 9 6 2 3 4 1 1 4 4 1 1 2 5 3 4 8 3 3 7 10 12 13 13
13 12 10 9 8 10 8 5 3 3 1 6 5 5 7 5 6 10 12 11 4 3 2 4 3 3 6 5 3 7 4 2 3 4 1 4 6 9 7 6 8 9 10 10 11
14 12 10 8 9 9 8 3 4 2 2 3 5 7 4 3 5 6 4 8 12 6 3 2 4 7 9 6 6 5 6 3 3 2 1 2 4 5 7 9 9 8 7 6 6
15 13 11 10 9 9 5 4 3 4 4 7 8 5 5 4 2 3 7 5 8 10 4 3 3 4 6 4 4 2 2 2 0 1 3 1 4 9 9 6 4 6 5 2 0
14 12 10 10 9 9 2 2 2 1 2 3 3 1 4 4 2 2 2 3 2 7 4 3 1 1 2 3 6 4 3 3 0 3 4 2 5 6 16 12 2 2 4 2 1
13 7 8 11 11 5 2 3 3 2 1 1 4 4 4 4 4 3 3 3 2 3 5 4 2 3 3 3 5 1 2 1 1 2 3 4 5 3 2 6 3 3 4 4 5
5 4 10 13 5 2 3 4 3 4 3 4 4 5 4 3 3 3 4 2 1 1 2 3 1 2 2 2 2 1 1 0 2 2 2 4 8 4 4 5 2 5 6 7 7
4 5 6 10 4 3 4 4 4 3 3 3 3 2 3 4 4 5 4 2 1 1 2 1 0 2 3 5 4 4 3 1 2 0 9 5 4 4 6 8 10 9 7 8 10
4 3 2 2 2 8 9 6 5 5 4 6 5 6 7 4 4 6 5 3 1 2 1 1 2 3 4 7 4 8 9 7 10 5 7 14 16 18 12 12 11 12 10 12 14
3 2 3 4 4 9 5 6 11 5 3 2 4 3 5 4 4 4 4 5 3 3 1 2 3 3 8 11 14 13 15 13 16 17 11 18 17 16 16 15 15 7 11 17 18
3 4 4 4 6 10 1 6 9 6 3 4 7 7 5 5 2 6 5 3 3 4 2 0 1 2 4 7 10 13 16 15 16 16 17 18 19 16 13 12 5 10 16 19 17
4 8 5 1 3 4 3 7 8 9 5 4 15 10 8 8 6 6 3 4 1 2 3 2 2 0 3 8 14 5 4 2 4 6 8 12 13 12 13 8 12 17 20 20 12
Wind_Direction
265 254 242 235 227 224 217 201 190 171 159 141 136 142 139 113 91 70 45 27 29 125 197 184 172 142 114 88 77 122 145 126 127 152 137 147 159 158 164 151 172 166 119 127 164
257 249 236 227 221 215 203 188 172 161 150 139 135 155 138 119 77 65 41 45 40 109 125 134 132 125 112 97 59 286 121 96 103 119 136 139 159 137 183 156 157 163 139 147 164
250 238 227 219 212 203 186 173 159 154 148 132 140 163 153 119 104 38 41 44 61 119 118 119 124 111 107 119 106 73 104 130 126 123 143 139 155 178 183 171 133 145 158 165 172
245 229 219 212 203 183 170 160 153 149 140 131 130 163 164 99 81 8 41 46 81 126 127 119 138 133 121 111 106 115 106 110 132 144 161 162 150 190 201 97 101 148 160 167 179
238 219 206 194 180 168 158 152 149 143 134 126 137 148 118 104 67 60 49 61 87 119 132 132 129 119 104 114 111 113 119 120 140 150 121 140 182 342 201 209 204 179 170 179 177
218 192 178 172 163 155 150 148 142 134 124 127 132 148 148 113 85 57 64 81 104 95 110 133 146 124 117 116 77 110 115 129 150 147 99 232 158 246 96 39 189 202 199 191 191
165 165 160 155 152 148 146 143 134 127 121 128 134 126 129 108 73 46 115 156 127 110 99 136 142 161 127 115 103 137 139 130 83 138 57 296 191 151 43 342 251 215 210 206 201
143 144 144 145 145 145 143 137 131 119 124 142 137 134 111 93 53 22 157 155 141 129 129 109 104 107 86 116 129 168 208 205 78 248 72 311 146 101 339 313 262 210 213 215 214
131 135 138 141 143 142 139 137 130 119 126 133 153 143 125 64 11 116 153 146 144 133 122 112 90 101 152 172 158 178 122 71 147 42 332 343 340 8 343 308 248 241 248 235 221
126 129 134 137 138 139 140 137 125 115 109 129 135 148 92 48 45 118 138 160 152 136 125 108 96 140 108 233 194 156 183 155 323 47 340 352 33 23 27 55 65 67 171 211 206
124 125 127 133 141 145 143 131 128 104 82 79 99 86 90 70 55 94 135 116 136 114 134 42 148 78 64 50 63 85 285 308 48 86 322 11 82 59 62 65 73 73 80 86 98
128 128 133 142 146 148 153 166 143 133 93 83 87 79 66 83 82 49 121 139 155 121 141 153 88 83 82 79 322 269 286 57 63 113 298 326 108 81 65 65 64 71 72 82 87
136 126 126 139 147 153 166 159 146 127 104 66 63 50 44 59 51 16 42 86 84 108 143 104 88 157 230 77 330 104 339 11 304 295 208 207 120 119 82 75 74 69 72 67 59
144 142 130 141 149 151 151 157 160 149 131 63 55 27 2 100 61 23 45 60 86 109 90 77 90 128 120 72 343 276 40 309 281 256 224 218 152 107 118 92 75 61 51 43 42
157 156 150 139 159 152 150 145 160 186 154 111 76 67 49 91 123 25 37 75 88 106 247 91 116 77 66 28 338 26 319 316 289 247 249 189 259 99 165 105 76 49 42 38 41
165 165 161 150 154 161 150 139 133 233 130 143 160 127 108 63 55 48 54 68 90 77 77 98 95 29 20 320 282 323 264 219 190 202 229 140 291 154 148 94 85 63 51 50 57
173 170 167 167 157 158 158 135 196 256 147 143 134 117 94 56 63 54 64 57 43 191 114 150 75 84 6 304 183 335 293 240 219 205 295 139 261 65 124 90 71 68 63 67 74
175 175 167 166 164 165 155 185 224 71 173 111 129 100 84 20 59 48 86 68 43 15 86 5 159 10 3 10 338 4 344 354 292 286 302 176 225 171 131 102 89 80 78 77 72
168 171 172 166 167 167 175 205 155 168 132 149 137 138 109 86 85 93 56 56 29 10 36 350 99 96 47 18 302 40 29 3 204 230 260 178 131 154 159 134 97 78 59 63 125
150 158 167 176 173 161 202 105 120 121 131 173 131 327 133 117 129 103 76 31 62 24 337 51 213 65 81 250 66 354 100 241 84 298 281 229 234 290 198 206 133 64 17 25 312
140 136 162 162 157 170 182 112 128 108 89 31 116 120 110 121 104 95 91 110 43 72 46 16 308 113 227 13 340 195 193 50 13 319 298 305 303 71 209 184 232 327 296 288 284
155 144 162 155 146 74 131 116 116 120 90 95 88 92 113 102 96 108 139 82 32 338 32 32 335 282 8 116 0 309 119 229 262 205 234 295 278 127 200 187 234 298 259 273 287
119 106 152 170 152 126 126 105 80 141 63 106 104 73 118 123 121 124 121 88 50 62 27 117 226 298 171 164 192 238 189 150 300 336 243 238 261 124 168 213 268 287 295 295 317
135 123 109 137 109 149 144 139 120 67 78 85 109 118 127 107 71 139 135 147 48 78 99 245 222 256 284 310 295 259 257 257 228 234 263 251 284 293 291 301 306 294 294 308 317
116 101 141 152 145 141 129 150 142 133 97 114 112 164 142 119 112 129 143 151 139 153 141 271 261 260 275 283 281 275 270 262 242 245 257 271 285 303 318 318 308 292 304 318 320
133 145 94 87 128 142 92 151 155 126 162 129 146 123 132 129 154 165 154 208 208 165 174 122 285 343 287 299 289 289 271 261 261 264 260 270 280 303 319 310 272 297 313 310 306
121 132 124 42 134 168 133 145 153 135 58 82 136 118 96 106 96 81 83 76 101 217 187 227 187 205 278 336 313 276 320 184 209 263 279 291 312 324 314 289 280 309 308 309 294